User: anonymous   Login
Location: Charleston
(38.3500°N, 81.6330°W)
Time: 00:31:40
(UTC-04:00)
Language:

Cosmos 2228 - Orbit

View from above orbital plane
View from above orbital plane
View from above satellite
View from above satellite

Ground track
Ground track

The orbit data is extracted from the following two-line orbital elements,

1 22286U 92094A   14295.79677595  .00002859  00000-0  32215-3 0  4636
2 22286 082.5244 206.4433 0022988 093.5505 266.8341 14.86114178178563
Epoch (UTC): 22 October 2014 19:07:21
Eccentricity: 0.0022988
inclination: 82.5244°
perigee height: 594 km
apogee height: 626 km
right ascension of ascending node: 206.4433°
argument of perigee: 93.5505°
revolutions per day: 14.86114178
mean anomaly at epoch: 266.8341°
orbit number at epoch: 17856

The dashed part of the orbit path shows where the satellite is in the earth's shadow,  

DLR